Time,TemperatureF,DewpointF,PressureIn,WindDirection,WindDirectionDegrees,WindSpeedMPH,WindSpeedGustMPH,Humidity,HourlyPrecipIn,Conditions,Clouds,dailyrainin,SoftwareType,DateUTC
2013-08-15 00:12:00,55.0,-99.9,-100.00,SW,232,6.0,6.0,-999,0.00,,,0.00,,2013-08-15 05:12:00,
2013-08-15 00:22:00,55.0,-99.9,-100.00,SW,232,6.0,6.0,-999,0.00,,,0.00,,2013-08-15 05:22:00,
2013-08-15 00:42:00,54.0,-99.9,-100.00,SW,227,5.0,7.0,-999,0.00,,,0.00,,2013-08-15 05:42:00,
2013-08-15 00:52:00,54.0,-99.9,-100.00,SW,227,5.0,7.0,-999,0.00,,,0.00,,2013-08-15 05:52:00,
2013-08-15 01:11:00,55.0,-99.9,-100.00,WSW,237,4.0,7.0,-999,0.00,,,0.00,,2013-08-15 06:11:00,
2013-08-15 01:22:00,55.0,-99.9,-100.00,WSW,237,4.0,7.0,-999,0.00,,,0.00,,2013-08-15 06:22:00,
2013-08-15 01:42:00,55.0,-99.9,-100.00,SW,231,4.0,4.0,-999,0.00,,,0.00,,2013-08-15 06:42:00,
2013-08-15 01:52:00,55.0,-99.9,-100.00,SW,231,4.0,4.0,-999,0.00,,,0.00,,2013-08-15 06:52:00,
2013-08-15 02:11:00,54.0,-99.9,-100.00,SW,227,4.0,5.0,-999,0.00,,,0.00,,2013-08-15 07:11:00,
2013-08-15 02:21:00,54.0,-99.9,-100.00,SW,227,4.0,5.0,-999,0.00,,,0.00,,2013-08-15 07:21:00,
2013-08-15 02:42:00,54.0,-99.9,-100.00,SW,228,4.0,6.0,-999,0.00,,,0.00,,2013-08-15 07:42:00,
2013-08-15 02:52:00,54.0,-99.9,-100.00,SW,228,4.0,6.0,-999,0.00,,,0.00,,2013-08-15 07:52:00,
2013-08-15 03:11:00,55.0,-99.9,-100.00,SW,230,4.0,6.0,-999,0.00,,,0.00,,2013-08-15 08:11:00,
2013-08-15 03:22:00,55.0,-99.9,-100.00,SW,230,4.0,6.0,-999,0.00,,,0.00,,2013-08-15 08:22:00,
2013-08-15 03:42:00,55.0,-99.9,-100.00,SW,233,4.0,5.0,-999,0.00,,,0.00,,2013-08-15 08:42:00,
2013-08-15 03:52:00,55.0,-99.9,-100.00,SW,233,4.0,5.0,-999,0.00,,,0.00,,2013-08-15 08:52:00,
2013-08-15 04:11:00,55.0,-99.9,-100.00,SW,231,4.0,5.0,-999,0.00,,,0.00,,2013-08-15 09:11:00,
2013-08-15 04:21:00,55.0,-99.9,-100.00,SW,231,4.0,5.0,-999,0.00,,,0.00,,2013-08-15 09:21:00,
2013-08-15 04:42:00,55.0,-99.9,-100.00,SW,228,3.0,5.0,-999,0.00,,,0.00,,2013-08-15 09:42:00,
2013-08-15 04:53:00,55.0,-99.9,-100.00,SW,228,3.0,5.0,-999,0.00,,,0.00,,2013-08-15 09:53:00,
2013-08-15 05:12:00,55.0,-99.9,-100.00,SW,227,3.0,4.0,-999,0.00,,,0.00,,2013-08-15 10:12:00,
2013-08-15 05:22:00,55.0,-99.9,-100.00,SW,227,3.0,4.0,-999,0.00,,,0.00,,2013-08-15 10:22:00,
2013-08-15 05:43:00,55.0,-99.9,-100.00,SW,231,4.0,5.0,-999,0.00,,,0.00,,2013-08-15 10:43:00,
2013-08-15 05:52:00,55.0,-99.9,-100.00,SW,231,4.0,5.0,-999,0.00,,,0.00,,2013-08-15 10:52:00,
2013-08-15 06:12:00,55.0,-99.9,-100.00,WSW,243,2.0,4.0,-999,0.00,,,0.00,,2013-08-15 11:12:00,
2013-08-15 06:22:00,55.0,-99.9,-100.00,WSW,243,2.0,4.0,-999,0.00,,,0.00,,2013-08-15 11:22:00,
2013-08-15 06:42:00,56.0,-99.9,-100.00,SW,236,2.0,3.0,-999,0.00,,,0.00,,2013-08-15 11:42:00,
2013-08-15 06:52:00,56.0,-99.9,-100.00,SW,236,2.0,3.0,-999,0.00,,,0.00,,2013-08-15 11:52:00,
2013-08-15 07:11:00,55.0,-99.9,-100.00,SW,229,4.0,5.0,-999,0.00,,,0.00,,2013-08-15 12:11:00,
2013-08-15 07:21:00,55.0,-99.9,-100.00,SW,229,4.0,5.0,-999,0.00,,,0.00,,2013-08-15 12:21:00,
2013-08-15 07:42:00,56.0,-99.9,-100.00,SW,225,3.0,4.0,-999,0.00,,,0.00,,2013-08-15 12:42:00,
2013-08-15 07:52:00,56.0,-99.9,-100.00,SW,225,3.0,4.0,-999,0.00,,,0.00,,2013-08-15 12:52:00,
2013-08-15 08:11:00,56.0,-99.9,-100.00,SW,233,5.0,7.0,-999,0.00,,,0.00,,2013-08-15 13:11:00,
2013-08-15 08:21:00,56.0,-99.9,-100.00,SW,233,5.0,7.0,-999,0.00,,,0.00,,2013-08-15 13:21:00,
2013-08-15 08:42:00,61.0,-99.9,-100.00,SW,216,1.0,2.0,-999,0.00,,,0.00,,2013-08-15 13:42:00,
2013-08-15 08:52:00,61.0,-99.9,-100.00,SW,216,1.0,2.0,-999,0.00,,,0.00,,2013-08-15 13:52:00,
2013-08-15 09:14:00,63.0,-99.9,-100.00,SE,129,1.0,2.0,-999,0.00,,,0.00,,2013-08-15 14:14:00,
2013-08-15 09:49:00,68.0,-99.9,-100.00,SE,132,1.0,3.0,-999,0.00,,,0.00,,2013-08-15 14:49:00,
2013-08-15 10:23:00,71.0,-99.9,-100.00,SE,133,1.0,3.0,-999,0.00,,,0.00,,2013-08-15 15:23:00,
2013-08-15 10:43:00,72.0,-99.9,-100.00,SE,139,3.0,6.0,-999,0.00,,,0.00,,2013-08-15 15:43:00,
2013-08-15 10:54:00,72.0,-99.9,-100.00,SE,139,3.0,6.0,-999,0.00,,,0.00,,2013-08-15 15:54:00,
2013-08-15 11:17:00,70.0,-99.9,-100.00,SW,233,1.0,3.0,-999,0.00,,,0.00,,2013-08-15 16:17:00,
2013-08-15 11:26:00,70.0,-99.9,-100.00,SW,233,1.0,3.0,-999,0.00,,,0.00,,2013-08-15 16:26:00,
2013-08-15 11:30:00,75.0,-99.9,-100.00,SW,220,1.0,5.0,-999,0.00,,,0.00,,2013-08-15 16:30:00,
2013-08-15 11:44:00,73.0,-99.9,-100.00,SSW,213,1.0,4.0,-999,0.00,,,0.00,,2013-08-15 16:44:00,
2013-08-15 11:55:00,73.0,-99.9,-100.00,SSW,213,1.0,4.0,-999,0.00,,,0.00,,2013-08-15 16:55:00,
2013-08-15 12:00:00,-999.0,-99.9,-100.00,NW,326,1.0,4.0,-999,-99.99,,,-99.99,,2013-08-15 17:00:00,
2013-08-15 12:19:00,75.0,-99.9,-100.00,SW,220,1.0,5.0,-999,0.00,,,0.00,,2013-08-15 17:19:00,
2013-08-15 12:30:00,-999.0,-99.9,-100.00,SE,137,3.0,6.0,-999,0.00,,,0.00,,2013-08-15 17:30:00,
2013-08-15 12:55:00,75.0,-99.9,-100.00,NW,326,1.0,4.0,-999,0.00,,,0.00,,2013-08-15 17:55:00,
2013-08-15 13:00:00,-999.0,-99.9,-100.00,SE,131,3.0,6.0,-999,0.00,,,0.00,,2013-08-15 18:00:00,
2013-08-15 13:29:00,78.0,-99.9,-100.00,SE,137,3.0,6.0,-999,0.00,,,0.00,,2013-08-15 18:29:00,
2013-08-15 13:30:00,-999.0,-99.9,-100.00,ESE,120,2.0,5.0,-999,-99.99,,,-99.99,,2013-08-15 18:30:00,
2013-08-15 13:40:00,-999.0,-99.9,-100.00,SE,131,3.0,6.0,-999,0.00,,,0.00,,2013-08-15 18:40:00,
2013-08-15 13:49:00,75.0,-99.9,-100.00,SE,131,3.0,6.0,-999,0.00,,,0.00,,2013-08-15 18:49:00,
2013-08-15 14:00:00,75.0,-99.9,-100.00,SW,217,2.0,5.0,-999,0.00,,,0.00,,2013-08-15 19:00:00,
2013-08-15 14:18:00,75.0,-99.9,-100.00,ESE,120,2.0,5.0,-999,0.00,,,0.00,,2013-08-15 19:18:00,
2013-08-15 14:30:00,77.0,-99.9,-100.00,SE,142,2.0,8.0,-999,0.00,,,0.00,,2013-08-15 19:30:00,
2013-08-15 14:49:00,75.0,-99.9,-100.00,SW,217,2.0,5.0,-999,0.00,,,0.00,,2013-08-15 19:49:00,
2013-08-15 15:00:00,76.0,-99.9,-100.00,SSE,163,2.0,4.0,-999,0.00,,,0.00,,2013-08-15 20:00:00,
2013-08-15 15:30:00,74.0,-99.9,-100.00,South,177,1.0,3.0,-999,0.00,,,0.00,,2013-08-15 20:30:00,
2013-08-15 15:46:00,76.0,-99.9,-100.00,SSE,163,2.0,4.0,-999,0.00,,,0.00,,2013-08-15 20:46:00,
2013-08-15 16:17:00,74.0,-99.9,-100.00,South,177,1.0,3.0,-999,0.00,,,0.00,,2013-08-15 21:17:00,
2013-08-15 16:30:00,77.0,-99.9,-100.00,SW,222,1.0,2.0,-999,0.00,,,0.00,,2013-08-15 21:30:00,
2013-08-15 16:50:00,74.0,-99.9,-100.00,SSE,167,1.0,2.0,-999,0.00,,,0.00,,2013-08-15 21:50:00,
2013-08-15 16:57:00,74.0,-99.9,-100.00,SSE,167,1.0,2.0,-999,0.00,,,0.00,,2013-08-15 21:57:00,
2013-08-15 17:17:00,77.0,-99.9,-100.00,SW,222,1.0,2.0,-999,0.00,,,0.00,,2013-08-15 22:17:00,
2013-08-15 17:29:00,77.0,-99.9,-100.00,SW,222,1.0,2.0,-999,0.00,,,0.00,,2013-08-15 22:29:00,
2013-08-15 17:30:00,-999.0,-99.9,-100.00,SSE,162,1.0,3.0,-999,0.00,,,0.00,,2013-08-15 22:30:00,
2013-08-15 17:58:00,75.0,-99.9,-100.00,SSE,150,1.0,5.0,-999,0.00,,,0.00,,2013-08-15 22:58:00,
2013-08-15 18:16:00,75.0,-99.9,-100.00,SSE,162,1.0,3.0,-999,0.00,,,0.00,,2013-08-15 23:16:00,
2013-08-15 18:48:00,75.0,-99.9,-100.00,SSE,167,1.0,2.0,-999,0.00,,,0.00,,2013-08-15 23:48:00,
2013-08-15 18:55:00,75.0,-99.9,-100.00,SSE,167,1.0,2.0,-999,0.00,,,0.00,,2013-08-15 23:55:00,
2013-08-15 19:12:00,74.0,-99.9,-100.00,SSE,151,0.0,1.0,-999,0.00,,,0.00,,2013-08-16 00:12:00,
2013-08-15 19:24:00,74.0,-99.9,-100.00,SSE,151,0.0,1.0,-999,0.00,,,0.00,,2013-08-16 00:24:00,
2013-08-15 19:46:00,72.0,-99.9,-100.00,SSE,160,1.0,4.0,-999,0.00,,,0.00,,2013-08-16 00:46:00,
2013-08-15 19:52:00,72.0,-99.9,-100.00,SSE,160,1.0,4.0,-999,0.00,,,0.00,,2013-08-16 00:52:00,
2013-08-15 20:21:00,71.0,-99.9,-100.00,SSW,210,0.0,1.0,-999,0.00,,,0.00,,2013-08-16 01:21:00,
2013-08-15 20:26:00,71.0,-99.9,-100.00,SSW,210,0.0,1.0,-999,0.00,,,0.00,,2013-08-16 01:26:00,
2013-08-15 20:43:00,-999.0,-99.9,-100.00,SW,223,1.0,-999.0,-999,-99.99,,,-99.99,,2013-08-16 01:43:00,
2013-08-15 20:54:00,68.0,-99.9,-100.00,SW,223,1.0,2.0,-999,0.00,,,0.00,,2013-08-16 01:54:00,
2013-08-15 21:12:00,66.0,-99.9,-100.00,SW,233,2.0,3.0,-999,0.00,,,0.00,,2013-08-16 02:12:00,
2013-08-15 21:22:00,66.0,-99.9,-100.00,SW,233,2.0,3.0,-999,0.00,,,0.00,,2013-08-16 02:22:00,
2013-08-15 21:44:00,64.0,-99.9,-100.00,SW,230,3.0,4.0,-999,0.00,,,0.00,,2013-08-16 02:44:00,
2013-08-15 21:52:00,64.0,-99.9,-100.00,SW,230,3.0,4.0,-999,0.00,,,0.00,,2013-08-16 02:52:00,
2013-08-15 22:12:00,62.0,-99.9,-100.00,SW,235,4.0,5.0,-999,0.00,,,0.00,,2013-08-16 03:12:00,
2013-08-15 22:22:00,62.0,-99.9,-100.00,SW,235,4.0,5.0,-999,0.00,,,0.00,,2013-08-16 03:22:00,
2013-08-15 22:43:00,60.0,-99.9,-100.00,SW,235,5.0,6.0,-999,0.00,,,0.00,,2013-08-16 03:43:00,
2013-08-15 22:54:00,60.0,-99.9,-100.00,SW,235,5.0,6.0,-999,0.00,,,0.00,,2013-08-16 03:54:00,
2013-08-15 23:13:00,59.0,-99.9,-100.00,SW,234,5.0,6.0,-999,0.00,,,0.00,,2013-08-16 04:13:00,
2013-08-15 23:23:00,59.0,-99.9,-100.00,SW,234,5.0,6.0,-999,0.00,,,0.00,,2013-08-16 04:23:00,
2013-08-15 23:43:00,58.0,-99.9,-100.00,WSW,237,4.0,6.0,-999,0.00,,,0.00,,2013-08-16 04:43:00,
2013-08-15 23:54:00,58.0,-99.9,-100.00,WSW,237,4.0,6.0,-999,0.00,,,0.00,,2013-08-16 04:54:00,